User: anonymous   Login
Location: Caltech
(34.1382°N, 118.1253°W)
Time: 18:48:40
(UTC-08:00)
Language:

CZ-4B DEB - Orbit

View from above orbital plane
View from above orbital plane
View from above satellite
View from above satellite

Ground track
Ground track

The orbit data is extracted from the following two-line orbital elements,

1 27433U 02024D   15061.50198647  .00000492  00000-0  29344-3 0  9990
2 27433 098.8618 028.5163 0013550 258.2835 101.6816 14.11813400658952
Epoch (UTC): 02 March 2015 12:02:51
Eccentricity: 0.0013550
inclination: 98.8618°
perigee height: 843 km
apogee height: 863 km
right ascension of ascending node: 28.5163°
argument of perigee: 258.2835°
revolutions per day: 14.11813400
mean anomaly at epoch: 101.6816°
orbit number at epoch: 65895

The dashed part of the orbit path shows where the satellite is in the earth's shadow,  

DLR